Flag for Philippines Weather past 2 weeks in Makati, Philippines

Now
75 °F

Passing clouds.


Feels Like: 76 °F
Forecast: 73 / 87 °F
Wind: 5 mph from South

Location: National Airport

Current Time: Jan 28, 2015 at 6:07:26 AM

Latest Report: Jan 28, 2015 at 5:00 AM


Visibility: N/A

Pressure: 29.86 "Hg

Humidity: 78%

Dew point: 68 °F

Location of MakatiLocation

Historic Weather in Makati — Graph

°F

Makati temperature yesterday

Maximum temperature yesterday: 86 °F (at 2:00 PM)
Minimum temperature yesterday: 70 °F (at 3:00 AM)
Average temperature yesterday: 78 °F

Past Weeks' High & Low Weather Summary

 TemperatureHumidityPressure
High86 °F (Jan 15, 4:00 PM)100% (Jan 18, 5:00 PM)30.07 "Hg (Jan 18, 5:00 PM)
Low68 °F (Jan 19, 6:00 AM)22% (Jan 22, 11:00 PM)29.80 "Hg (Jan 18, 4:00 PM)
Average78 °F74%29.94 "Hg
* Reported Jan 13 4:00 AM — Jan 28 4:00 AM, Makati, Weather by CustomWeather, © 2014

Note: Actual official high and low records may vary slightly from our data, if they occured in-between our weather recording intervals... More about our weather records

Advertising

Makati weather history for previous 24 hours

 ConditionsComfort  
Time TempWeatherWind HumidityBarometerVisibility
4:00 AM
Jan 28
77 °FPartly cloudy.3 mph79%29.86 "HgN/A
3:00 AM77 °FPartly cloudy.2 mph79%29.86 "HgN/A
2:00 AM77 °FPassing clouds.2 mph79%29.86 "HgN/A
1:00 AM79 °FPartly cloudy.6 mph70%29.89 "HgN/A
12:00 AM77 °FPartly cloudy.6 mph79%29.89 "HgN/A
11:00 PM
Jan 27
79 °FPartly cloudy.6 mph74%29.89 "HgN/A
10:00 PM79 °FMostly cloudy.2 mph74%29.92 "HgN/A
9:00 PM79 °FMostly cloudy.7 mph74%29.89 "HgN/A
8:00 PM79 °FPartly cloudy.7 mph74%29.89 "HgN/A
7:00 PM81 °FPartly cloudy.6 mph70%29.86 "HgN/A
6:00 PM81 °FPartly cloudy.8 mph70%29.86 "HgN/A
5:00 PM82 °FScattered showers. Broken clouds.7 mph66%29.83 "HgN/A
4:00 PM84 °FBroken clouds.7 mph62%29.83 "HgN/A
3:00 PM84 °FPassing clouds.9 mph62%29.83 "HgN/A
2:00 PM86 °FScattered clouds.5 mph59%29.86 "HgN/A
1:00 PM84 °FScattered clouds.6 mph62%29.89 "HgN/A
12:00 PM82 °FScattered clouds.6 mph66%29.92 "HgN/A
11:00 AM81 °FBroken clouds.6 mph70%29.95 "HgN/A
10:00 AM81 °FPassing clouds.6 mph70%29.95 "HgN/A
9:00 AM77 °FPassing clouds.3 mph83%29.98 "HgN/A
8:00 AM75 °FPassing clouds.3 mph89%29.95 "HgN/A
7:00 AM73 °FPassing clouds.No wind89%29.95 "HgN/A
6:00 AM73 °FPassing clouds.5 mph89%29.92 "HgN/A
Weather by CustomWeather, © 2014

See weather overviewHow to use our weather pages